map of MUW home
Great Circle Mapper logo
MUW - Airport
Location
City:  Ghriss, Algeria
Near (Alt.):Mascara-Ghriss
ICAO / IATA:DAOV / MUW

Details
Type:Airport (Aerodrome, Airfield)
Latitude:3513'01"N (35.216944)
Longitude:008'54"E (0.148333)
Elevation:1686 ft (514 m)
Variation:0.09E (WMM2015 magnetic declination)
0.10 annual change
Runways:1
Longest:5577 × 98 ft (1700 × 30 m)

Time
Time Zone:UTC+1
Local Time:

Weather
METAR:DAOV 281400Z 03008KT 8000 NSC 34/16 Q1017

Related Locations
Nearby:
Farthest:NZOP: 12185 mi / 19610 km
Opotiki, NZ

Find:

   beyond  
but within

Other Information
Maps:
NOTAMs:
Links:
Sources:

  
flag of Algeria   

Sectional Chart

Flight Planning
at skyvector.com

Satellite Image

Google Maps Satellite view

 

Copyright © 2004-2015 Karl L. Swartz. All rights reserved.
The Great Circle Mapper name and logo are trademarks of the Great Circle Mapper.
All other trademarks mentioned herein belong to their respective owners.
Please see credits for attibutions and further copyright information.

  Follow gcmap on Facebook Follow gcmap on Twitter Follow gcmap on Google+

hCard Microformat

Geo Microformat